Volver al catálogo

GONETS M 13

M23

ActivoComunicacionesPO
NORAD 40554·PAYLOAD·🇷🇺 Russia

Lanzado Mar 31, 2015 desde Plesetsk Cosmodrome

Loading…

Próximos Pases (próximas 24 horas)

TLE

ActualizadoSource: Space-Track

Época: Sep 14, 2026, 15:07 UTC

1 40554U 15020C   26257.62988834  .00000042  00000-0  22980-3 0  9996
2 40554  82.4912 335.0046 0014866 134.6523 225.5771 12.42886934519816

Sigue GONETS M 13 en tiempo real con AllMySat

Download on the App Store